| time (UTC) | temp C | wind direction | speed KPH | gust KPH | rain 1hr cm | rain 24hr cm | rain mn cm | humidity % | barometer mb |
| 20260503010009 | 11 | 327 | 0.0 | 0.0 | 0.00 | 0.41 | 0.41 | 93 | 1010.9 |
| 20260503005505 | 11 | 327 | 0.0 | 0.0 | 0.00 | 0.41 | 0.41 | 93 | 1011.0 |
| 20260503005002 | 11 | 327 | 0.0 | 0.0 | 0.00 | 0.41 | 0.41 | 93 | 1011.0 |
| 20260503004458 | 11 | 337 | 0.0 | 0.0 | 0.00 | 0.41 | 0.41 | 92 | 1011.0 |
| 20260503003956 | 11 | 342 | 0.0 | 0.0 | 0.00 | 0.41 | 0.41 | 92 | 1010.7 |
| 20260503003453 | 11 | 342 | 0.0 | 0.0 | 0.00 | 0.41 | 0.41 | 92 | 1010.5 |
| 20260503002950 | 11 | 342 | 0.0 | 0.0 | 0.00 | 0.41 | 0.41 | 92 | 1010.6 |
| 20260503002447 | 11 | 342 | 0.0 | 0.0 | 0.00 | 0.41 | 0.41 | 91 | 1010.5 |
| 20260503001943 | 11 | 315 | 0.0 | 0.0 | 0.00 | 0.41 | 0.41 | 91 | 1010.5 |
| 20260503001440 | 11 | 299 | 0.0 | 0.0 | 0.00 | 0.41 | 0.41 | 91 | 1010.9 |
| 20260503000938 | 11 | 316 | 0.0 | 0.0 | 0.00 | 0.41 | 0.41 | 91 | 1010.4 |
| 20260503000437 | 11 | 255 | 0.0 | 0.0 | 0.00 | 0.41 | 0.41 | 91 | 1010.5 |
| 20260502235932 | 11 | 308 | 0.0 | 0.0 | 0.00 | 0.41 | 0.41 | 91 | 1010.6 |
| 20260502235429 | 11 | 308 | 0.0 | 0.0 | 0.00 | 0.41 | 0.41 | 91 | 1010.4 |
| 20260502234926 | 11 | 322 | 0.0 | 0.0 | 0.00 | 0.41 | 0.41 | 90 | 1010.4 |
| 20260502234422 | 11 | 328 | 0.0 | 0.0 | 0.00 | 0.41 | 0.41 | 90 | 1010.1 |
| 20260502233919 | 11 | 328 | 0.0 | 0.0 | 0.00 | 0.41 | 0.41 | 90 | 1010.2 |
| 20260502233415 | 11 | 327 | 0.0 | 0.0 | 0.00 | 0.41 | 0.41 | 90 | 1010.1 |
| 20260502232912 | 11 | 300 | 0.0 | 0.0 | 0.00 | 0.41 | 0.41 | 89 | 1010.2 |
| 20260502232409 | 11 | 298 | 0.0 | 0.0 | 0.00 | 0.41 | 0.41 | 89 | 1010.1 |
| 20260502231905 | 11 | 298 | 0.0 | 0.0 | 0.00 | 0.41 | 0.41 | 89 | 1010.0 |
| 20260502231403 | 11 | 24 | 0.0 | 0.0 | 0.00 | 0.41 | 0.41 | 88 | 1009.8 |
| 20260502230901 | 11 | 23 | 0.0 | 0.0 | 0.00 | 0.41 | 0.41 | 88 | 1009.8 |
| 20260502230359 | 11 | 23 | 0.0 | 0.0 | 0.00 | 0.41 | 0.41 | 88 | 1009.8 |
| 20260502225855 | 11 | 23 | 0.0 | 0.0 | 0.00 | 0.41 | 0.41 | 88 | 1009.7 |
| 20260502225352 | 11 | 27 | 0.0 | 0.0 | 0.00 | 0.41 | 0.41 | 89 | 1009.9 |
| 20260502224849 | 11 | 27 | 0.0 | 0.0 | 0.00 | 0.41 | 0.41 | 89 | 1009.8 |
| 20260502224345 | 11 | 28 | 0.0 | 0.0 | 0.00 | 0.41 | 0.41 | 89 | 1009.7 |
| 20260502223843 | 11 | 20 | 1.6 | 1.6 | 0.00 | 0.41 | 0.41 | 90 | 1009.7 |
| 20260502223341 | 12 | 11 | 0.0 | 0.0 | 0.00 | 0.41 | 0.41 | 90 | 1009.9 |
| 20260502222838 | 12 | 0 | 0.0 | 0.0 | 0.00 | 0.41 | 0.41 | 90 | 1009.8 |
| 20260502222336 | 12 | 6 | 0.0 | 0.0 | 0.00 | 0.41 | 0.41 | 90 | 1009.8 |
| 20260502221831 | 12 | 6 | 0.0 | 0.0 | 0.00 | 0.41 | 0.41 | 90 | 1009.9 |
| 20260502221328 | 12 | 11 | 0.0 | 1.6 | 0.00 | 0.41 | 0.41 | 90 | 1010.1 |
| 20260502220825 | 12 | 11 | 1.6 | 1.6 | 0.00 | 0.41 | 0.41 | 90 | 1009.6 |
| 20260502220321 | 12 | 20 | 1.6 | 1.6 | 0.00 | 0.41 | 0.41 | 90 | 1009.8 |
| 20260502215817 | 11 | 3 | 0.0 | 0.0 | 0.00 | 0.41 | 0.41 | 90 | 1009.7 |
| 20260502215315 | 12 | 2 | 1.6 | 3.2 | 0.00 | 0.41 | 0.41 | 90 | 1009.9 |
| 20260502214812 | 12 | 21 | 0.0 | 1.6 | 0.00 | 0.41 | 0.41 | 90 | 1009.9 |
| 20260502214308 | 12 | 13 | 0.0 | 0.0 | 0.00 | 0.41 | 0.41 | 90 | 1009.8 |
| 20260502213806 | 11 | 5 | 0.0 | 1.6 | 0.00 | 0.41 | 0.41 | 90 | 1009.9 |
| 20260502213302 | 12 | 14 | 1.6 | 1.6 | 0.00 | 0.41 | 0.41 | 89 | 1009.8 |
| 20260502212802 | 12 | 10 | 0.0 | 0.0 | 0.00 | 0.41 | 0.41 | 89 | 1009.9 |
| 20260502212259 | 11 | 12 | 0.0 | 0.0 | 0.00 | 0.41 | 0.41 | 89 | 1009.9 |
| 20260502211755 | 11 | 13 | 0.0 | 0.0 | 0.00 | 0.41 | 0.41 | 89 | 1010.0 |
| 20260502211252 | 12 | 350 | 3.2 | 3.2 | 0.00 | 0.41 | 0.41 | 89 | 1010.0 |
| 20260502210749 | 11 | 30 | 1.6 | 1.6 | 0.00 | 0.41 | 0.41 | 89 | 1009.7 |
| 20260502210247 | 11 | 20 | 0.0 | 0.0 | 0.00 | 0.41 | 0.41 | 89 | 1009.8 |
| 20260502205744 | 12 | 11 | 1.6 | 1.6 | 0.00 | 0.41 | 0.41 | 89 | 1010.0 |
| 20260502205239 | 12 | 8 | 1.6 | 1.6 | 0.00 | 0.41 | 0.41 | 89 | 1010.0 |
| 20260502204737 | 12 | 359 | 1.6 | 1.6 | 0.00 | 0.41 | 0.41 | 89 | 1009.9 |
| 20260502204234 | 11 | 357 | 1.6 | 3.2 | 0.00 | 0.41 | 0.41 | 89 | 1009.7 |
| 20260502203732 | 11 | 13 | 1.6 | 1.6 | 0.00 | 0.41 | 0.41 | 89 | 1009.7 |
| 20260502203230 | 11 | 6 | 0.0 | 0.0 | 0.00 | 0.41 | 0.41 | 89 | 1009.8 |
| 20260502202724 | 11 | 357 | 1.6 | 1.6 | 0.00 | 0.41 | 0.41 | 89 | 1010.0 |
| 20260502202222 | 11 | 12 | 0.0 | 1.6 | 0.00 | 0.41 | 0.41 | 89 | 1009.6 |
| 20260502201719 | 11 | 359 | 1.6 | 1.6 | 0.00 | 0.41 | 0.41 | 88 | 1009.7 |
| 20260502201216 | 11 | 9 | 0.0 | 0.0 | 0.18 | 0.41 | 0.41 | 89 | 1009.9 |
| 20260502200712 | 11 | 1 | 3.2 | 3.2 | 0.18 | 0.41 | 0.41 | 89 | 1009.7 |
| 20260502200208 | 11 | 6 | 1.6 | 3.2 | 0.00 | 0.38 | 0.38 | 89 | 1009.9 |
| 20260502195707 | 11 | 14 | 1.6 | 1.6 | 0.00 | 0.38 | 0.38 | 89 | 1009.9 |
| 20260502195203 | 11 | 3 | 1.6 | 3.2 | 0.00 | 0.38 | 0.38 | 89 | 1010.2 |
| 20260502194700 | 11 | 11 | 1.6 | 1.6 | 0.00 | 0.38 | 0.38 | 89 | 1009.5 |
| 20260502194156 | 11 | 15 | 0.0 | 0.0 | 0.00 | 0.38 | 0.38 | 89 | 1009.7 |
| 20260502193653 | 11 | 9 | 1.6 | 3.2 | 0.00 | 0.38 | 0.38 | 89 | 1009.7 |
| 20260502193150 | 11 | 9 | 0.0 | 1.6 | 0.00 | 0.38 | 0.38 | 89 | 1010.1 |
| 20260502192645 | 11 | 8 | 3.2 | 3.2 | 0.00 | 0.38 | 0.38 | 89 | 1010.1 |
| 20260502192143 | 11 | 9 | 1.6 | 3.2 | 0.00 | 0.38 | 0.38 | 89 | 1010.9 |
| 20260502191639 | 11 | 12 | 1.6 | 1.6 | 0.00 | 0.38 | 0.38 | 89 | 1010.5 |
| 20260502191137 | 11 | 2 | 1.6 | 1.6 | 0.00 | 0.38 | 0.38 | 89 | 1010.4 |
| 20260502190634 | 11 | 2 | 1.6 | 1.6 | 0.00 | 0.38 | 0.38 | 89 | 1010.4 |
| 20260502190132 | 11 | 355 | 1.6 | 3.2 | 0.00 | 0.38 | 0.38 | 88 | 1010.0 |
| 20260502185626 | 12 | 355 | 4.8 | 4.8 | 0.00 | 0.38 | 0.38 | 88 | 1010.3 |
| 20260502185124 | 12 | 3 | 3.2 | 4.8 | 0.00 | 0.38 | 0.38 | 88 | 1010.3 |
| 20260502184620 | 12 | 15 | 3.2 | 3.2 | 0.00 | 0.38 | 0.38 | 88 | 1010.4 |
| 20260502184115 | 12 | 348 | 6.4 | 8.0 | 0.00 | 0.38 | 0.38 | 88 | 1010.6 |
| 20260502183612 | 12 | 21 | 0.0 | 1.6 | 0.00 | 0.38 | 0.38 | 89 | 1010.7 |
| 20260502183108 | 12 | 14 | 0.0 | 1.6 | 0.00 | 0.38 | 0.38 | 89 | 1010.5 |
| 20260502182603 | 12 | 7 | 8.0 | 9.7 | 0.00 | 0.38 | 0.38 | 90 | 1010.5 |
| 20260502182059 | 12 | 355 | 6.4 | 9.7 | 0.00 | 0.38 | 0.38 | 90 | 1010.3 |
| 20260502181557 | 12 | 12 | 4.8 | 4.8 | 0.00 | 0.38 | 0.38 | 91 | 1010.6 |
| 20260502181056 | 12 | 23 | 3.2 | 3.2 | 0.00 | 0.38 | 0.38 | 92 | 1010.7 |
| 20260502180552 | 12 | 16 | 1.6 | 3.2 | 0.00 | 0.38 | 0.38 | 92 | 1010.6 |
| 20260502170512 | 13 | 9 | 1.6 | 1.6 | 0.18 | 0.30 | 0.30 | 89 | 1011.9 |
| 20260502163955 | 13 | 17 | 3.2 | 4.8 | 0.00 | 0.28 | 0.28 | 89 | 1011.5 |
| 20260502163450 | 13 | 351 | 4.8 | 8.0 | 0.00 | 0.28 | 0.28 | 90 | 1011.4 |
| 20260502162949 | 13 | 11 | 1.6 | 1.6 | 0.00 | 0.28 | 0.28 | 91 | 1011.2 |
| 20260502162445 | 13 | 0 | 6.4 | 8.0 | 0.00 | 0.28 | 0.28 | 91 | 1011.1 |
| 20260502161942 | 13 | 32 | 1.6 | 3.2 | 0.00 | 0.28 | 0.28 | 91 | 1011.2 |
| 20260502161438 | 13 | 18 | 1.6 | 3.2 | 0.00 | 0.28 | 0.28 | 91 | 1011.1 |
| 20260502160937 | 13 | 5 | 6.4 | 8.0 | 0.00 | 0.28 | 0.28 | 91 | 1011.1 |
| 20260502160435 | 13 | 18 | 1.6 | 1.6 | 0.00 | 0.28 | 0.28 | 91 | 1011.1 |
| 20260502151918 | 13 | 14 | 0.0 | 0.0 | 0.00 | 0.20 | 0.20 | 92 | 1012.0 |
| 20260502151415 | 13 | 12 | 1.6 | 1.6 | 0.00 | 0.20 | 0.20 | 91 | 1012.0 |
| 20260502150912 | 13 | 19 | 1.6 | 1.6 | 0.18 | 0.20 | 0.20 | 91 | 1012.1 |
| 20260502150408 | 13 | 17 | 1.6 | 3.2 | 0.18 | 0.20 | 0.20 | 91 | 1011.9 |
| 20260502130255 | 12 | 22 | 0.0 | 0.0 | 0.00 | 0.18 | 0.18 | 95 | 1010.6 |
| 20260502123740 | 12 | 21 | 0.0 | 1.6 | 0.13 | 0.13 | 0.13 | 94 | 1011.0 |
| 20260502123237 | 12 | 19 | 0.0 | 0.0 | 0.00 | 0.10 | 0.10 | 94 | 1011.1 |
| 20260502122734 | 12 | 4 | 0.0 | 1.6 | 0.00 | 0.10 | 0.10 | 94 | 1010.9 |
| 20260502122230 | 12 | 14 | 0.0 | 1.6 | 0.00 | 0.10 | 0.10 | 94 | 1010.9 |
| 20260502121728 | 12 | 17 | 1.6 | 3.2 | 0.00 | 0.10 | 0.10 | 94 | 1010.9 |
| 20260502121226 | 12 | 15 | 1.6 | 1.6 | 0.00 | 0.10 | 0.10 | 94 | 1010.8 |
| 20260502120722 | 12 | 7 | 0.0 | 1.6 | 0.00 | 0.10 | 0.10 | 94 | 1010.8 |
| 20260502120219 | 12 | 2 | 1.6 | 3.2 | 0.18 | 0.10 | 0.10 | 94 | 1011.1 |
| 20260502115717 | 12 | 0 | 1.6 | 1.6 | 0.18 | 0.10 | 0.10 | 94 | 1011.0 |
| 20260502115213 | 12 | 11 | 1.6 | 1.6 | 0.00 | 0.08 | 0.08 | 94 | 1011.1 |
| 20260502114709 | 12 | 2 | 0.0 | 1.6 | 0.18 | 0.08 | 0.08 | 93 | 1011.2 |
| 20260502114207 | 12 | 16 | 0.0 | 0.0 | 0.18 | 0.08 | 0.08 | 93 | 1011.2 |
| 20260502113704 | 12 | 5 | 0.0 | 0.0 | 0.00 | 0.05 | 0.05 | 93 | 1011.4 |
| 20260502113201 | 12 | 8 | 0.0 | 0.0 | 0.00 | 0.05 | 0.05 | 93 | 1011.3 |
| 20260502112659 | 12 | 11 | 0.0 | 0.0 | 0.00 | 0.05 | 0.05 | 93 | 1011.2 |
| 20260502112156 | 12 | 357 | 0.0 | 0.0 | 0.13 | 0.05 | 0.05 | 93 | 1011.2 |
| 20260502111654 | 12 | 12 | 0.0 | 0.0 | 0.13 | 0.05 | 0.05 | 93 | 1011.0 |
| 20260502111151 | 12 | 9 | 0.0 | 0.0 | 0.00 | 0.03 | 0.03 | 93 | 1011.0 |
| 20260502110649 | 12 | 10 | 0.0 | 0.0 | 0.00 | 0.03 | 0.03 | 92 | 1011.0 |
| 20260502110146 | 12 | 12 | 0.0 | 0.0 | 0.00 | 0.03 | 0.03 | 92 | 1011.0 |
| 20260502105643 | 12 | 5 | 0.0 | 0.0 | 0.00 | 0.03 | 0.03 | 92 | 1011.1 |
| 20260502105140 | 12 | 13 | 0.0 | 0.0 | 0.18 | 0.03 | 0.03 | 92 | 1011.0 |
| 20260502104637 | 12 | 12 | 0.0 | 0.0 | 0.18 | 0.03 | 0.03 | 92 | 1011.0 |
| 20260502104135 | 12 | 7 | 0.0 | 0.0 | 0.00 | 0.00 | 0.00 | 92 | 1011.0 |
| 20260502103632 | 12 | 6 | 0.0 | 0.0 | 0.00 | 0.00 | 0.00 | 92 | 1010.7 |
| 20260502103130 | 12 | 356 | 0.0 | 0.0 | 0.00 | 0.00 | 0.00 | 92 | 1010.7 |
| 20260502102627 | 12 | 346 | 0.0 | 0.0 | 0.00 | 0.00 | 0.00 | 92 | 1010.8 |
| 20260502102123 | 12 | 342 | 0.0 | 0.0 | 0.00 | 0.00 | 0.00 | 92 | 1010.8 |
| 20260502101621 | 12 | 358 | 0.0 | 0.0 | 0.00 | 0.00 | 0.00 | 92 | 1010.8 |
| 20260502101120 | 12 | 351 | 0.0 | 0.0 | 0.00 | 0.00 | 0.00 | 91 | 1010.6 |
| 20260502100618 | 12 | 350 | 0.0 | 0.0 | 0.00 | 0.00 | 0.00 | 91 | 1010.5 |
| 20260502100116 | 12 | 358 | 0.0 | 0.0 | 0.00 | 0.00 | 0.00 | 91 | 1010.5 |
| 20260502091044 | 12 | 11 | 0.0 | 0.0 | 0.00 | 0.00 | 0.00 | 93 | 1010.3 |
| 20260502090541 | 12 | 358 | 1.6 | 1.6 | 0.00 | 0.00 | 0.00 | 93 | 1010.2 |
| 20260502071435 | 11 | 341 | 1.6 | 1.6 | 0.00 | 0.00 | 0.00 | 94 | 1009.9 |
| 20260502070933 | 11 | 350 | 1.6 | 1.6 | 0.00 | 0.00 | 0.00 | 94 | 1010.0 |
| 20260502070431 | 11 | 358 | 1.6 | 1.6 | 0.00 | 0.00 | 0.00 | 94 | 1009.7 |
| 20260502065929 | 11 | 358 | 1.6 | 1.6 | 0.00 | 0.00 | 0.00 | 94 | 1010.1 |
| 20260502065427 | 11 | 350 | 1.6 | 1.6 | 0.00 | 0.00 | 0.00 | 94 | 1010.1 |
| 20260502064925 | 11 | 9 | 0.0 | 0.0 | 0.00 | 0.00 | 0.00 | 94 | 1010.3 |
| 20260502064423 | 11 | 344 | 0.0 | 0.0 | 0.00 | 0.00 | 0.00 | 94 | 1010.3 |
| 20260502063920 | 11 | 347 | 1.6 | 1.6 | 0.00 | 0.00 | 0.00 | 94 | 1009.9 |
| 20260502063417 | 11 | 356 | 1.6 | 1.6 | 0.00 | 0.00 | 0.00 | 94 | 1010.2 |
| 20260502062915 | 11 | 349 | 1.6 | 1.6 | 0.00 | 0.00 | 0.00 | 94 | 1010.2 |
| 20260502062412 | 11 | 0 | 0.0 | 0.0 | 0.00 | 0.00 | 0.00 | 94 | 1010.5 |
| 20260502061911 | 11 | 0 | 0.0 | 0.0 | 0.00 | 0.00 | 0.00 | 94 | 1010.6 |
| 20260502061409 | 11 | 343 | 1.6 | 1.6 | 0.00 | 0.00 | 0.00 | 94 | 1010.6 |
| 20260502060904 | 11 | 343 | 0.0 | 0.0 | 0.00 | 0.00 | 0.00 | 94 | 1010.7 |
| 20260502060359 | 11 | 357 | 0.0 | 0.0 | 0.00 | 0.00 | 0.00 | 94 | 1011.0 |
| 20260502055857 | 11 | 319 | 1.6 | 1.6 | 0.00 | 0.00 | 0.00 | 94 | 1010.9 |
| 20260502055354 | 11 | 334 | 0.0 | 0.0 | 0.00 | 0.00 | 0.00 | 94 | 1010.8 |
| 20260502054854 | 11 | 1 | 0.0 | 0.0 | 0.00 | 0.00 | 0.00 | 94 | 1011.0 |
| 20260502054351 | 11 | 341 | 1.6 | 1.6 | 0.00 | 0.00 | 0.00 | 94 | 1011.1 |
| 20260502053849 | 11 | 356 | 0.0 | 0.0 | 0.00 | 0.00 | 0.00 | 94 | 1011.1 |
| 20260502053345 | 11 | 337 | 1.6 | 1.6 | 0.00 | 0.00 | 0.00 | 94 | 1011.2 |
| 20260502052843 | 11 | 350 | 0.0 | 1.6 | 0.00 | 0.00 | 0.00 | 94 | 1011.1 |
| 20260502052341 | 11 | 349 | 1.6 | 1.6 | 0.00 | 0.00 | 0.00 | 93 | 1011.5 |
| 20260502051839 | 11 | 346 | 0.0 | 1.6 | 0.00 | 0.00 | 0.00 | 93 | 1011.3 |
| 20260502051337 | 11 | 332 | 0.0 | 1.6 | 0.00 | 0.00 | 0.00 | 93 | 1011.5 |
| 20260502050833 | 11 | 344 | 1.6 | 1.6 | 0.00 | 0.00 | 0.00 | 93 | 1011.5 |
| 20260502050330 | 11 | 359 | 1.6 | 1.6 | 0.00 | 0.00 | 0.00 | 93 | 1011.2 |
| 20260502045827 | 11 | 352 | 0.0 | 1.6 | 0.00 | 0.00 | 0.00 | 93 | 1011.6 |
| 20260502045323 | 11 | 358 | 0.0 | 0.0 | 0.00 | 0.00 | 0.00 | 93 | 1011.6 |
| 20260502044821 | 11 | 341 | 0.0 | 0.0 | 0.00 | 0.00 | 0.00 | 93 | 1011.4 |
| 20260502044317 | 11 | 7 | 0.0 | 0.0 | 0.00 | 0.00 | 0.00 | 93 | 1011.7 |
| 20260502043814 | 11 | 326 | 0.0 | 0.0 | 0.00 | 0.00 | 0.00 | 93 | 1011.7 |
| 20260502043312 | 11 | 7 | 0.0 | 0.0 | 0.00 | 0.00 | 0.00 | 93 | 1011.6 |
| 20260502042811 | 11 | 344 | 0.0 | 0.0 | 0.00 | 0.00 | 0.00 | 93 | 1011.6 |
| 20260502042309 | 11 | 22 | 0.0 | 0.0 | 0.00 | 0.00 | 0.00 | 93 | 1011.7 |
| 20260502041806 | 11 | 358 | 0.0 | 0.0 | 0.00 | 0.00 | 0.00 | 93 | 1012.0 |
| 20260502041303 | 11 | 311 | 0.0 | 0.0 | 0.00 | 0.00 | 0.00 | 93 | 1012.0 |
| 20260502040800 | 11 | 337 | 0.0 | 0.0 | 0.00 | 0.00 | 0.00 | 93 | 1011.9 |
| 20260502040257 | 11 | 344 | 0.0 | 0.0 | 0.00 | 0.00 | 0.00 | 93 | 1012.2 |
| 20260502035753 | 11 | 311 | 0.0 | 0.0 | 0.00 | 0.05 | 0.05 | 93 | 1012.2 |
| 20260502035249 | 11 | 17 | 0.0 | 0.0 | 0.00 | 0.05 | 0.05 | 92 | 1012.1 |
| 20260502034747 | 12 | 7 | 0.0 | 0.0 | 0.00 | 0.05 | 0.05 | 92 | 1012.2 |
| 20260502034245 | 12 | 347 | 0.0 | 0.0 | 0.00 | 0.05 | 0.05 | 92 | 1012.1 |
| 20260502033743 | 12 | 317 | 0.0 | 0.0 | 0.00 | 0.05 | 0.05 | 92 | 1012.2 |
| 20260502033241 | 12 | 359 | 0.0 | 0.0 | 0.00 | 0.05 | 0.05 | 92 | 1012.2 |
| 20260502032737 | 11 | 344 | 0.0 | 0.0 | 0.00 | 0.05 | 0.05 | 92 | 1012.1 |
| 20260502032233 | 12 | 23 | 0.0 | 0.0 | 0.00 | 0.05 | 0.05 | 92 | 1012.1 |
| 20260502031731 | 11 | 4 | 0.0 | 0.0 | 0.00 | 0.05 | 0.05 | 92 | 1012.3 |
| 20260502031229 | 11 | 349 | 0.0 | 0.0 | 0.00 | 0.05 | 0.05 | 91 | 1012.1 |
| 20260502030728 | 11 | 30 | 0.0 | 0.0 | 0.00 | 0.05 | 0.05 | 91 | 1012.3 |
| 20260502030225 | 12 | 11 | 0.0 | 0.0 | 0.00 | 0.05 | 0.05 | 91 | 1012.2 |
| 20260502025722 | 12 | 335 | 1.6 | 3.2 | 0.00 | 0.05 | 0.05 | 91 | 1012.5 |
| 20260502025220 | 12 | 62 | 0.0 | 0.0 | 0.00 | 0.05 | 0.05 | 91 | 1012.4 |
| 20260502024717 | 11 | 98 | 1.6 | 1.6 | 0.00 | 0.05 | 0.05 | 91 | 1012.4 |
| 20260502024216 | 11 | 250 | 0.0 | 0.0 | 0.00 | 0.05 | 0.05 | 92 | 1012.7 |
| 20260502023713 | 11 | 320 | 0.0 | 1.6 | 0.00 | 0.05 | 0.05 | 91 | 1012.6 |
| 20260502023210 | 11 | 331 | 1.6 | 1.6 | 0.00 | 0.05 | 0.05 | 91 | 1012.7 |
| 20260502022708 | 11 | 328 | 0.0 | 0.0 | 0.00 | 0.05 | 0.05 | 91 | 1012.9 |
| 20260502022204 | 11 | 359 | 0.0 | 0.0 | 0.00 | 0.05 | 0.05 | 91 | 1012.7 |
| 20260502021701 | 11 | 325 | 0.0 | 0.0 | 0.00 | 0.05 | 0.05 | 90 | 1012.6 |
| 20260502021159 | 11 | 317 | 0.0 | 0.0 | 0.00 | 0.05 | 0.05 | 90 | 1012.7 |
| 20260502020655 | 11 | 11 | 0.0 | 0.0 | 0.00 | 0.05 | 0.05 | 89 | 1012.8 |
| 20260502020152 | 12 | 340 | 1.6 | 1.6 | 0.00 | 0.05 | 0.05 | 89 | 1012.8 |
| 20260502015650 | 12 | 337 | 1.6 | 1.6 | 0.00 | 0.05 | 0.05 | 88 | 1012.7 |
| 20260502015146 | 12 | 46 | 0.0 | 0.0 | 0.00 | 0.05 | 0.05 | 87 | 1012.7 |
| 20260502014644 | 12 | 24 | 0.0 | 0.0 | 0.00 | 0.05 | 0.05 | 86 | 1012.6 |
| 20260502014141 | 12 | 128 | 0.0 | 1.6 | 0.00 | 0.05 | 0.05 | 85 | 1012.8 |
| 20260502013637 | 12 | 127 | 0.0 | 1.6 | 0.00 | 0.05 | 0.05 | 85 | 1012.7 |
| 20260502013132 | 12 | 135 | 4.8 | 4.8 | 0.00 | 0.05 | 0.05 | 83 | 1012.9 |
| 20260502012630 | 12 | 144 | 0.0 | 0.0 | 0.00 | 0.05 | 0.05 | 87 | 1012.8 |
| 20260502012128 | 12 | 335 | 0.0 | 0.0 | 0.00 | 0.05 | 0.05 | 86 | 1012.8 |
| 20260502011624 | 12 | 71 | 0.0 | 0.0 | 0.00 | 0.05 | 0.05 | 85 | 1012.8 |
| 20260502011120 | 12 | 139 | 0.0 | 0.0 | 0.00 | 0.05 | 0.05 | 84 | 1012.4 |
| 20260502010618 | 13 | 344 | 0.0 | 0.0 | 0.30 | 0.05 | 0.05 | 84 | 1012.8 |